User: anonymous   Login
Location: Unspecified
(0.0000°N, 0.0000°E)
Time: 11:13:45
(UTC+00:00)
Language:

Telecom 1B - Orbit

View from above orbital plane
View from above orbital plane
View from above satellite
View from above satellite

Ground track
Ground track

The orbit data is extracted from the following two-line orbital elements,

1 15678U 85035B   18019.28448944 -.00000291 +00000-0 +00000-0 0  9993
2 15678 014.4159 347.4453 0006447 304.3608 240.9459 01.00205060106226
Epoch (UTC): 19 January 2018 06:49:39
Eccentricity: 0.0006447
inclination: 14.4159°
perigee height: 35778 km
apogee height: 35832 km
right ascension of ascending node: 347.4453°
argument of perigee: 304.3608°
revolutions per day: 1.00205060
mean anomaly at epoch: 240.9459°
orbit number at epoch: 10622

The dashed part of the orbit path shows where the satellite is in the earth's shadow,  

DLR